CAPE
42 385 713 456 519 19 160 43 67 31 13 9 25 394 616 663 617 110 55 308 626 420 825 1132 1499 1665 1657 1546 1440 1591 1457 1666 1733 1587 1569 1543 1459 1473 1436 1416 1452 1455 1477 1490 1481 1446 1472 1693 1933
939 1394 646 333 390 9 80 125 43 23 23 10 50 302 535 528 268 33 90 252 608 588 515 1082 1485 1284 1225 1348 1434 1345 1226 1727 1941 1664 1507 1665 1693 1747 1611 1559 1371 1285 1288 1180 1220 1311 1496 1482 1586
1198 1197 467 553 101 10 36 35 25 15 15 45 126 141 434 469 389 234 225 596 639 820 649 1336 1628 1665 1660 1353 1149 1088 1245 1534 1685 1854 1570 1929 1603 1628 1391 1387 1604 1384 1365 1481 1471 1378 1438 1498 1472
576 565 316 69 173 20 5 46 90 30 4 0 47 232 361 645 468 388 296 186 661 1103 1252 1493 1343 1792 1675 1656 1642 1429 1032 878 1128 1368 1116 1852 1722 1748 1673 1801 1525 1542 1515 1373 1435 1321 1406 1466 1509
785 410 259 119 137 228 123 192 121 44 49 1 52 370 431 627 427 159 133 456 439 673 930 1263 1423 1474 152 525 1311 907 852 587 512 690 993 1389 1571 1865 1786 1719 1672 1353 1295 1374 1192 1319 1309 1862 1704
277 180 3 63 53 333 306 254 219 78 23 0 24 484 571 483 498 258 238 290 540 673 631 717 1397 1229 471 1110 874 481 876 888 398 482 694 961 1329 1833 1816 1667 1500 1269 1291 1098 1236 1083 1123 1532 1413
52 342 109 151 35 271 59 556 333 92 36 9 57 608 412 465 332 157 108 162 492 412 766 907 1175 1268 1340 1058 450 59 892 720 278 73 427 674 1107 1841 1850 1037 1118 1227 1267 1224 1217 854 1071 1157 1356
387 288 17 185 12 162 94 486 347 168 7 46 11 218 332 461 460 284 364 585 827 965 953 643 1009 1141 929 664 1259 1403 992 413 140 53 424 789 1148 1806 1667 693 1048 1210 1170 1051 850 893 1161 1211 1401
36 107 155 88 80 2 138 492 241 108 84 25 182 275 410 246 191 218 454 694 542 1055 1041 513 574 863 575 292 976 1103 885 892 476 186 725 770 1547 1342 755 958 723 1102 960 929 747 921 922 1088 1176
226 18 257 194 8 154 258 453 186 91 76 1 131 231 222 202 165 243 341 537 695 466 745 945 686 874 464 43 524 910 817 283 126 258 89 810 1135 1077 1086 840 729 1007 799 788 541 536 705 1255 1815
124 79 325 113 112 397 195 271 28 150 6 0 33 16 171 132 166 210 262 221 386 348 612 1055 567 750 417 50 699 651 51 1 12 203 224 539 860 501 252 181 331 496 289 606 525 723 992 1589 1147
52 22 260 172 277 238 307 288 317 329 54 26 46 5 28 149 121 88 53 59 174 421 642 789 681 630 674 382 528 133 63 640 856 1021 303 408 820 385 145 118 434 632 526 1169 0 91 1333 1484 1406
30 248 274 155 62 349 340 202 358 356 47 105 15 10 35 33 24 18 23 35 216 338 407 638 742 859 546 494 841 569 611 906 1076 354 337 962 676 251 349 541 576 616 586 698 86 252 247 130 1034
41 76 246 298 292 159 163 372 361 1 361 46 9 11 25 82 101 67 59 68 155 249 293 435 669 610 608 533 627 579 306 294 633 158 1337 1379 742 403 628 349 619 740 997 1282 1707 1251 660 101 668
53 51 495 198 133 273 195 250 227 310 75 60 8 24 26 60 89 179 140 149 80 165 279 344 265 621 997 405 786 789 786 529 451 516 1482 820 1241 337 593 414 848 1263 1224 928 1548 1451 897 621 1153
0 45 46 42 239 620 284 466 397 472 162 72 26 20 8 34 51 28 59 125 121 168 209 238 207 450 899 668 745 777 636 547 0 22 350 543 1301 826 1011 869 1121 835 1100 1277 181 55 0 63 789
28 80 27 495 296 158 540 596 555 526 566 149 65 40 7 29 39 27 35 45 77 156 134 179 200 369 668 432 418 321 177 129 352 280 1043 1080 1293 871 1319 1512 1569 941 1034 616 55 9 20 352 80
4 32 34 72 286 17 141 367 604 637 552 386 361 120 11 8 43 65 26 57 23 144 97 85 48 28 402 261 220 82 71 329 109 838 764 400 794 1185 1415 1669 1531 1106 970 1311 0 0 1 8 0
11 0 0 0 17 0 0 73 704 354 758 548 442 471 101 16 33 81 72 74 29 200 212 146 27 47 90 169 19 166 174 343 86 355 919 279 1105 717 1105 1224 1083 739 1177 1740 1135 1716 1205 757 8
0 0 0 0 1 0 0 0 7 680 741 556 732 609 362 78 22 164 71 61 182 220 460 227 216 26 3 83 0 4 0 3 51 15 490 872 634 1274 800 645 1237 1059 647 1351 1397 1330 696 623 30
0 0 0 0 0 0 0 0 46 73 108 534 619 797 654 371 8 110 78 63 259 504 687 541 371 592 310 416 89 23 137 181 572 0 404 1359 754 1358 818 1158 886 1206 1048 1068 1351 1647 1148 198 0
0 0 0 0 0 0 0 0 160 0 0 130 510 605 722 543 273 66 165 90 177 728 851 970 551 744 508 539 168 20 30 70 189 192 432 625 1004 1056 1229 831 1212 1360 1549 1257 1064 1686 1361 1268 299
0 0 0 0 0 0 0 0 291 181 93 390 274 492 554 674 640 146 140 187 120 779 969 1238 865 900 359 739 389 252 254 271 72 263 22 916 889 1270 1587 1139 1290 1393 1163 1023 877 1409 1245 1754 1705
0 0 0 0 0 0 0 1 171 24 151 35 228 435 587 601 783 424 200 294 263 730 1066 1402 1390 1014 1027 668 676 349 164 556 114 228 326 98 1093 1503 1334 1408 1022 1407 992 1182 1144 1677 1922 1523 1374
0 0 0 0 0 7 3 8 3 45 16 22 1 16 525 640 933 732 208 260 516 624 1076 1497 1693 1499 1281 818 617 1011 687 444 633 358 146 643 651 1711 1539 1302 1199 1423 1686 1193 890 1784 1611 1937 1712
0 0 0 0 43 9 0 0 1 0 0 0 0 0 0 401 685 910 428 273 441 799 1112 1414 1923 1875 1338 1072 684 935 596 1180 898 1176 497 536 774 1146 979 1384 1552 1730 1781 1035 1178 1585 1229 1138 1618
0 0 0 0 0 0 0 1 18 1 0 0 0 31 50 302 672 789 898 531 740 797 957 1213 2001 2120 1791 1207 1311 963 1026 895 893 1068 1096 971 1159 1067 357 487 947 1411 1542 1137 1750 1181 1341 1122 1150
0 0 0 0 0 0 0 4 15 0 0 12 13 74 132 456 657 769 865 825 784 827 1097 1309 2135 2230 2145 1400 1415 1399 1235 1033 1296 1147 1130 1268 677 1101 558 267 466 115 198 1348 1408 1271 1276 1212 1277
0 0 0 0 0 2 2 2 0 0 0 0 0 188 387 468 665 797 937 938 1015 863 1153 1358 2199 2280 2351 1920 1613 1492 1620 1504 1301 1491 1484 1356 1178 1454 575 535 43 0 169 1240 1228 1085 1253 1276 980
0 0 0 0 0 0 0 1 0 0 0 0 0 270 689 769 709 678 995 1390 1138 1084 1286 1331 1755 2173 2325 2139 1871 1744 1573 1536 1741 1837 1812 1722 1406 1394 1393 993 501 113 432 1272 1234 1070 869 947 1315
CIN
-314 -211 -129 -29 -4 -56 -26 -13 -9 -25 -10 -6 -8 -22 -3 -7 -8 -27 -100 -36 -41 -65 -58 -30 -3 0 0 -1 -5 -4 -5 0 0 0 0 0 0 0 0 -1 -1 -1 0 0 0 0 0 0 0
-125 -10 -11 -17 -3 -54 -14 -13 -57 -4 -3 -10 -31 -8 -5 -34 -113 -205 -135 -19 -10 -23 -94 -43 -3 -16 -14 -5 -3 -8 -8 0 0 0 -1 0 0 -1 0 0 -1 -1 0 0 0 0 -1 -3 -1
-107 -5 -22 -7 -39 -49 -107 -4 -2 -1 -1 -2 -17 -10 -23 -3 -34 -77 -87 -12 -5 -6 -55 -24 -1 -3 -1 -5 -12 -15 -9 0 -1 0 -2 0 0 -1 0 0 0 0 0 0 0 0 0 0 -9
-47 -13 -20 -28 -13 -14 -95 -3 -20 -5 -3 0 -4 -29 -21 -7 -28 -46 -103 -110 -39 -5 -11 -9 -14 0 0 0 0 -3 -15 -14 -8 -6 -10 0 -1 -1 0 0 0 0 0 0 -1 -4 -1 -8 -11
-7 -7 -3 -17 -9 -13 -87 -8 -15 -54 -3 -1 -29 -5 -33 -9 -16 -94 -113 -45 -66 -39 -39 -14 -6 -7 -79 -48 -3 -7 -9 -16 -22 -12 -6 -2 -2 0 0 0 0 -2 -2 -3 -15 -9 -16 -15 -20
-15 -13 -23 -50 -46 -10 -10 -2 -5 -24 -3 0 -2 -20 -27 -49 -5 -41 -37 -40 -16 -36 -28 -41 -3 -8 -45 -7 -9 -13 -7 -7 -34 -34 -28 -4 -1 0 0 0 0 -8 -9 -22 -17 -27 -35 -37 -33
-6 -3 -15 -26 -96 -9 -113 -42 -13 -45 -10 -12 -9 -24 -43 -40 -22 -34 -35 -16 -22 -9 -4 -8 -13 -3 0 -1 -25 -74 -7 -13 -40 -84 -52 -28 -6 0 0 -11 -18 -15 -23 -27 -31 -50 -52 -58 -42
-14 -31 -27 -5 -42 -8 -60 -11 -12 -30 -36 -6 -12 -21 -43 -27 -17 -24 -22 -17 -11 -11 -4 -5 -22 -8 -10 -15 -2 0 -1 -26 -65 -86 -56 -40 -13 -1 -2 -34 -32 -28 -36 -42 -60 -61 -69 -66 -54
-112 -95 -21 -15 -35 -48 -59 -14 -17 -13 -26 -9 -10 -19 -59 -35 -43 -8 -11 -10 -13 -3 -11 -2 -26 -22 -17 -41 -2 -2 -5 -12 -30 -47 -38 -41 -17 -11 -28 -27 -47 -48 -57 -60 -73 -76 -82 -86 -73
-71 -65 -28 -10 -32 -32 -20 -21 -35 -26 -29 -7 -14 -60 -73 -28 -21 -3 -1 -1 -20 -31 -5 -7 -8 -16 -16 -54 -10 -4 -18 -64 -87 -92 -100 -46 -6 -7 -2 -41 -58 -59 -70 -77 -88 -94 -85 -82 -51
-45 -87 -9 -1 -13 -19 -3 -8 -35 -12 -46 -11 -3 -14 -19 -41 -12 -9 -10 -19 -6 -4 -2 -2 -24 -8 -6 -49 -4 -10 -83 -36 -158 -112 -62 -41 -28 -10 -31 -98 -85 -76 -92 -69 -61 -74 -65 -26 -7
-39 -145 -3 -4 -24 -2 -5 -6 -8 -19 -36 -46 -2 -1 -1 -36 -14 -22 -47 -38 -18 -7 -9 -1 -5 -5 -5 -12 -19 -44 -68 -40 -34 -27 -35 -35 -42 -18 -24 -57 -42 -35 -40 -28 0 -136 -15 -3 -13
-13 -11 -4 -18 -38 -2 -6 -8 -25 -31 -59 -16 -3 -3 -2 -8 -29 -34 -5 -11 -25 -31 -24 -1 -11 -4 -12 -8 -3 -6 -10 -13 -4 -35 -28 -12 -9 -16 -5 -9 -5 -6 -10 -20 -215 -85 -128 -59 -66
-28 -14 -2 -3 -2 -14 -6 -5 -19 -28 -25 -5 -19 -4 -3 -36 -21 -42 -25 -28 -40 -29 -19 -16 -8 -13 -11 -11 -9 -7 -29 -158 -12 -35 -4 -2 -6 -7 -4 -13 -8 -4 -8 -4 -6 -6 -89 -152 -88
-21 -9 -5 -70 -6 -1 -10 -2 -3 -25 -23 -4 -32 -14 -2 -1 -9 -16 -30 -23 -55 -32 -27 -33 -17 -6 -10 -21 -7 -13 -5 -37 -25 -39 -5 -14 -11 -7 -4 -13 -5 -4 -12 -29 -13 -26 -84 -83 -30
0 -12 -15 -20 -18 -16 -24 -3 -37 -42 -29 -5 -3 -2 -6 -5 -4 -4 -4 -35 -65 -39 -49 -34 -5 -10 -10 -19 -9 -12 -25 -25 -20 -57 -59 -17 -16 -8 -7 -4 -9 -32 -18 -19 -207 -270 -19 -140 -60
-27 -13 -14 -7 -14 -20 -5 -9 -50 -88 -9 -4 -22 -20 -9 -5 -8 -5 -5 -5 -8 -33 -31 -29 -17 -5 -6 -14 -2 -21 -43 -53 -39 -80 -7 -17 -15 -20 -17 -23 -10 -12 -17 -72 -117 -175 -208 -69 -121
-29 -11 -6 -5 -26 -7 -5 -4 -11 -2 -2 -5 -27 -30 -11 -10 -4 -8 -16 -6 -11 -16 -22 -13 -43 -18 -9 -17 -6 -46 -33 -27 -49 -8 -9 -48 -31 -25 -19 -22 -5 -19 -13 -37 0 0 -19 -114 -12
-3 0 0 0 -11 0 0 -17 -7 -89 -12 -3 -26 -12 -3 -3 -8 -24 -9 -6 -20 -16 -21 -2 -41 -49 -44 -14 -46 -24 -22 -7 -43 -32 -4 -62 -38 -45 -25 -29 -10 -14 -19 -3 -193 -7 -36 -41 -39
0 0 0 0 -2 0 0 0 -3 -14 -3 -12 -20 -11 -9 -32 -5 -21 -11 -34 -14 -30 -37 -15 -22 -61 -13 -21 0 -18 0 -159 -90 -65 -32 -31 -46 -27 -29 -28 -14 -5 -13 -7 -12 -14 -36 -64 -172
0 0 0 0 0 0 0 0 -8 -16 -187 -6 -4 -16 -18 -18 -46 -12 -18 -13 -7 -20 -45 -54 -25 -14 -17 -4 -14 -39 -10 -8 -9 0 -24 -14 -29 -10 -32 -27 -21 -16 -12 -14 -9 -10 -14 -29 0
0 0 0 0 0 0 0 0 -50 0 0 -132 -3 -2 -29 -31 -37 -19 -9 -9 -6 -28 -50 -60 -51 -28 -11 -5 -24 -65 -27 -17 -19 -38 -21 -13 -7 -19 -24 -43 -26 -19 -20 -17 -13 -5 -5 -10 -24
0 0 0 0 0 0 0 0 -22 -130 -88 -23 -6 -2 -3 -11 -12 -29 -28 -3 -8 -26 -46 -70 -61 -42 -43 -10 -6 -13 -7 -10 -44 -16 -21 -5 -17 -15 -5 -26 -28 -36 -38 -29 -17 -12 -30 -16 -14
0 0 0 0 0 0 0 -8 -36 -41 -6 -103 -5 -6 -8 -6 -19 -30 -36 -4 -18 -26 -37 -50 -51 -57 -30 -23 -18 -25 -40 -6 -18 -10 -8 -18 -14 -11 -11 -15 -36 -37 -50 -29 -24 -10 -4 -15 -23
0 0 0 0 0 -21 -38 -65 -25 -22 -23 -21 -6 -9 -7 -12 -13 -18 -38 -19 -5 -21 -29 -36 -43 -26 -25 -40 -38 -17 -19 -16 -12 -14 -35 -9 -12 -5 -22 -29 -39 -34 -31 -40 -32 -9 -9 -9 -15
0 0 0 0 -19 -40 -17 0 -8 0 0 0 0 0 0 -5 -5 -15 -85 -44 -12 -18 -38 -34 -29 -10 -31 -53 -62 -40 -45 -16 -18 -5 -3 -7 -7 -6 -22 -20 -24 -20 -18 -44 -28 -5 -16 -18 -12
0 0 0 0 0 0 0 -11 -7 -4 0 0 0 -5 -12 -21 -6 -9 -20 -20 -13 -15 -28 -44 -33 -14 -24 -59 -39 -53 -44 -33 -19 -11 -10 -6 -3 -20 -71 -58 -13 -4 -6 -26 -6 -17 -8 -8 -11
0 0 0 0 0 0 -1 -30 -50 0 0 -5 -26 -5 -4 -16 -12 -5 -6 -4 -21 -18 -34 -28 -32 -31 -31 -48 -47 -41 -41 -46 -19 -13 -8 -6 -14 -21 -93 -127 -69 -72 -109 -6 -9 -9 -4 -5 -7
0 0 0 0 0 -15 -10 -9 -7 0 0 0 0 -2 -8 -12 -15 -4 -7 -7 -8 -15 -19 -23 -18 -22 -19 -44 -48 -35 -36 -42 -28 -10 -5 -8 -12 -16 -64 -76 -161 0 -172 -2 -7 -14 -8 -6 -9
0 0 0 0 0 0 0 -22 0 0 0 0 0 -3 -5 -5 -17 -20 -7 -6 -13 -20 -26 -17 -19 -17 -24 -37 -33 -44 -56 -31 -16 -13 -9 -7 -17 -15 -5 -27 -94 -161 -100 -4 -12 -32 -33 -18 -18
Wind_Speed
17 15 14 14 13 14 16 20 23 22 23 21 22 21 21 19 14 10 17 13 16 10 9 9 9 8 8 11 14 15 14 13 11 12 11 12 16 19 22 23 24 25 25 26 26 26 26 25 25
17 17 14 15 12 13 18 21 21 24 23 21 21 21 22 21 17 15 19 22 19 13 8 7 5 7 9 10 11 12 10 11 10 10 11 12 18 20 22 24 25 25 25 26 26 26 26 25 24
16 16 15 16 18 18 10 19 20 22 21 21 19 19 20 20 18 18 19 19 18 15 9 7 7 7 7 8 10 10 8 9 9 9 9 10 11 17 22 24 25 25 26 26 25 24 23 23 21
13 16 13 19 17 17 15 19 20 20 21 21 20 20 20 20 15 17 20 20 16 21 9 5 8 6 7 8 9 11 8 8 8 7 7 8 8 11 22 25 25 25 25 25 24 22 21 20 19
13 17 22 24 20 11 17 17 19 18 19 22 20 20 19 17 17 20 19 17 17 16 16 14 13 7 6 8 9 9 8 8 8 7 6 6 6 8 23 25 26 25 25 23 21 20 18 16 20
16 19 23 22 20 19 16 16 15 17 20 19 20 19 19 17 19 19 19 20 20 16 17 14 12 7 6 12 9 11 9 8 7 6 5 6 14 14 25 24 25 25 24 22 21 20 19 21 23
21 21 22 20 20 18 17 20 16 17 18 21 17 16 16 17 19 20 19 18 16 16 12 12 12 9 7 9 12 14 10 13 13 8 4 5 16 16 19 23 24 24 23 21 20 19 19 20 22
20 20 22 18 17 15 7 18 14 14 14 18 16 13 14 18 18 14 12 15 16 13 12 11 11 12 8 9 12 14 13 15 14 15 3 16 19 20 20 24 24 23 21 20 18 18 18 18 20
16 25 15 20 20 16 11 13 14 14 12 21 21 16 18 20 19 20 17 16 14 13 16 14 13 14 8 11 13 15 16 17 19 22 13 24 24 26 25 22 24 22 21 19 17 17 16 14 14
19 22 7 18 17 15 14 12 18 16 18 16 20 20 21 21 19 18 18 17 13 15 9 8 14 18 12 12 14 16 15 20 23 25 21 24 23 26 23 23 22 22 21 20 18 16 13 12 13
17 24 20 22 19 14 14 16 13 11 15 8 15 17 20 19 18 19 18 17 18 14 12 12 4 15 13 11 15 18 19 22 25 26 20 22 25 22 21 23 24 23 22 18 15 14 14 14 13
18 12 21 20 19 17 15 16 15 14 14 19 14 16 17 18 16 16 16 8 9 11 10 12 11 8 8 12 15 19 21 22 24 28 23 30 26 28 26 26 26 24 22 12 12 16 15 14 18
20 12 18 18 18 16 16 16 15 12 13 13 12 13 14 15 15 14 16 14 13 13 17 9 8 6 7 16 14 18 18 24 21 29 28 28 27 26 23 16 22 22 20 21 20 18 9 18 16
13 17 15 17 18 15 16 15 13 3 21 9 10 11 12 16 12 14 14 14 14 12 7 5 4 4 4 18 6 7 12 22 13 24 27 25 22 19 12 18 22 20 20 18 17 19 21 12 17
18 13 8 19 22 17 18 14 14 10 7 7 8 8 10 11 14 14 15 14 15 13 11 12 12 10 4 7 7 6 11 7 6 15 16 19 20 22 16 22 24 16 20 20 18 16 17 13 17
5 7 21 14 9 16 17 19 12 9 10 11 7 7 7 8 11 10 12 13 16 15 11 13 16 10 6 11 8 5 9 7 7 8 24 14 18 22 20 20 17 18 22 18 12 16 17 17 15
22 25 20 9 14 17 16 17 9 13 8 12 5 5 7 7 12 11 10 10 11 11 13 10 10 11 10 10 10 8 2 3 5 10 13 19 20 23 21 20 17 15 20 16 15 19 19 14 13
21 7 9 19 11 20 23 18 10 5 6 8 7 15 8 8 11 12 10 9 7 8 6 8 9 9 10 9 8 8 5 1 1 4 4 4 27 24 21 22 14 18 21 13 13 13 16 15 14
4 28 26 26 14 24 24 27 5 7 9 5 6 9 9 8 6 10 12 8 10 7 7 7 9 9 10 13 12 10 10 5 4 3 2 3 21 24 23 22 19 20 24 16 17 18 17 14 20
25 28 5 7 15 20 23 26 26 2 2 5 8 9 11 10 8 13 9 12 11 8 7 5 8 10 14 17 17 15 16 14 13 3 8 5 20 24 23 24 23 21 25 22 19 18 19 16 12
12 11 27 28 21 31 31 5 21 19 31 7 6 11 14 12 6 9 9 9 11 10 9 8 9 12 15 15 14 14 10 9 8 15 6 13 20 22 25 25 25 22 23 23 20 19 19 20 18
25 18 1 5 25 29 19 27 8 10 11 21 4 9 15 14 14 14 15 10 13 10 10 9 10 11 17 16 12 13 12 12 9 10 14 24 18 6 20 25 23 23 23 25 21 20 19 18 13
19 27 28 19 27 20 13 16 11 9 8 11 5 9 12 14 14 12 13 17 13 13 11 10 12 14 17 19 15 15 17 17 19 18 21 23 16 18 11 2 22 20 23 27 23 20 19 21 21
12 23 10 3 2 3 8 13 4 18 5 7 4 10 9 9 11 14 20 23 13 13 12 10 13 15 17 19 17 14 21 23 19 12 8 7 6 7 6 1 9 22 22 24 24 20 20 20 22
5 2 6 3 2 6 21 18 20 8 5 6 6 7 5 4 10 13 15 20 14 14 12 10 12 14 16 17 18 15 20 24 31 12 12 8 7 4 3 3 3 21 21 24 22 21 20 18 18
6 3 3 4 19 25 16 21 19 10 12 13 10 5 6 3 5 12 15 21 17 13 11 9 10 12 17 16 17 17 22 24 16 19 2 2 8 15 14 17 14 29 19 18 26 17 21 23 20
13 4 17 14 35 35 32 31 19 12 11 8 5 6 7 4 6 9 14 19 18 17 13 8 11 12 13 16 13 15 16 19 4 13 4 18 18 17 14 22 30 28 27 16 12 11 15 24 20
7 24 6 5 12 18 23 25 29 10 10 13 12 6 6 6 5 10 11 16 18 18 13 13 12 14 16 19 16 14 13 17 25 24 10 3 7 8 5 4 20 31 31 4 4 2 20 18 20
13 6 10 34 28 30 26 17 21 11 9 12 12 13 6 6 5 7 11 17 16 18 20 11 13 16 15 19 16 15 7 25 27 29 20 17 11 3 3 9 4 17 31 17 5 13 29 23 22
11 9 6 10 10 21 26 26 15 15 9 6 11 11 9 7 5 2 12 12 14 15 16 16 10 12 21 19 15 16 14 32 20 21 19 10 3 3 3 2 5 9 18 18 4 4 5 16 14
Wind_Direction
188 179 166 204 161 257 115 102 56 50 50 30 26 49 43 16 11 39 94 76 92 84 74 63 55 47 37 44 50 51 43 35 22 22 20 25 38 53 66 70 77 77 76 80 83 86 77 77 87
202 207 190 207 7 22 59 44 61 54 60 56 31 49 39 27 35 69 99 105 96 86 74 61 41 39 38 32 31 34 24 24 19 19 19 23 45 58 62 75 77 77 79 84 89 91 85 89 100
197 206 227 282 329 299 214 42 41 53 68 40 43 43 39 57 60 83 92 97 91 84 84 68 54 36 20 19 23 20 354 10 8 12 3 7 13 44 65 81 79 81 83 85 100 91 106 107 115
216 207 164 304 1 118 155 61 55 27 36 36 37 47 43 65 59 90 102 101 88 86 75 54 56 25 12 18 10 29 330 360 339 340 337 356 349 24 76 91 86 83 88 105 109 121 120 120 126
191 240 280 299 330 52 108 28 25 19 43 34 47 44 45 34 75 102 103 100 101 85 86 80 74 39 313 334 336 360 329 315 302 297 315 299 292 11 89 102 108 101 118 129 134 134 138 143 126
305 320 307 306 309 303 335 342 21 30 21 63 53 52 37 58 100 101 105 111 111 93 103 81 65 42 335 44 23 34 12 346 18 2 315 300 213 203 126 147 137 142 142 143 140 136 137 130 122
300 318 318 325 315 323 338 265 321 357 348 25 53 35 48 76 106 110 111 118 103 94 82 77 70 48 24 33 54 62 29 62 71 61 335 273 205 197 181 160 154 151 154 152 148 145 143 139 132
336 342 326 343 332 344 27 302 41 5 304 36 41 52 72 96 105 82 79 84 86 76 81 76 69 81 49 41 56 69 68 72 75 92 315 214 199 190 181 157 163 163 164 162 161 155 148 145 138
14 28 314 336 332 346 351 319 323 356 7 2 11 60 84 98 98 109 95 101 99 100 109 96 90 94 61 66 61 72 83 89 99 117 129 196 189 176 169 177 167 170 170 171 170 160 158 161 160
337 326 213 302 18 20 316 339 277 314 329 19 36 61 86 98 105 110 115 107 95 108 87 58 107 112 83 80 82 87 83 107 122 131 120 198 199 181 187 177 178 174 176 173 171 167 169 178 181
339 327 15 348 343 48 0 311 330 20 346 79 55 72 100 100 104 115 116 123 127 117 104 89 50 107 93 75 94 109 112 126 137 134 199 205 197 193 198 180 175 175 179 187 206 210 169 184 192
346 132 342 350 351 351 348 308 316 332 324 184 60 86 96 105 100 112 114 45 80 102 95 107 100 67 85 95 108 119 126 131 139 149 116 181 200 189 186 170 166 166 180 189 209 208 202 207 141
332 304 355 3 7 15 357 325 322 340 103 119 65 83 100 112 104 111 120 105 94 110 122 101 95 88 87 128 117 139 133 179 128 150 159 178 192 192 197 215 195 189 201 167 151 190 290 212 187
35 340 7 6 351 20 359 357 0 285 210 49 71 90 90 112 107 108 113 114 113 112 89 67 59 80 64 144 77 62 106 138 100 140 177 200 226 229 257 227 206 209 212 214 205 200 153 96 178
325 5 32 339 290 324 350 345 348 83 70 77 81 86 93 95 95 114 121 117 114 111 102 104 129 120 101 107 85 71 296 283 298 247 239 234 231 224 245 217 203 239 222 212 215 254 259 213 161
65 40 327 352 78 2 353 330 2 110 117 133 98 84 75 89 98 83 97 111 125 117 106 114 129 114 111 132 109 77 302 300 353 264 207 260 244 230 232 240 250 259 214 226 343 291 253 266 246
300 303 331 18 6 353 348 349 34 139 105 141 85 353 100 97 105 105 97 99 100 99 112 95 108 116 116 124 114 106 358 292 67 116 125 247 243 232 238 245 268 273 245 308 327 311 254 262 260
328 341 3 340 9 344 322 332 9 48 92 127 118 160 136 135 131 117 110 107 91 85 58 75 99 108 117 119 109 108 114 264 157 292 48 312 214 233 242 244 291 271 257 358 12 129 136 171 70
61 294 311 310 353 331 317 301 12 33 153 118 120 152 152 167 165 141 129 113 111 91 81 78 99 93 107 126 127 123 124 126 129 288 50 315 248 238 243 249 268 267 244 324 265 292 309 252 125
256 296 16 7 344 339 322 308 298 41 97 32 135 146 158 157 172 149 148 136 131 115 99 93 96 99 118 131 134 133 135 135 139 192 278 305 254 242 246 246 255 263 250 272 287 307 265 321 168
201 215 255 263 325 299 279 245 320 304 275 312 146 163 161 157 162 169 163 155 144 132 119 116 115 115 121 123 125 130 118 121 125 152 138 150 164 250 248 251 252 262 263 264 288 296 286 297 290
236 215 14 3 316 296 338 316 326 342 337 214 157 163 167 160 161 167 170 160 153 142 131 123 129 124 137 133 123 131 132 133 132 135 152 175 159 185 262 255 264 264 264 260 277 282 292 287 262
220 256 263 328 310 237 233 329 15 63 143 165 128 159 165 163 162 166 172 169 158 149 140 131 137 139 144 144 133 137 145 146 156 154 160 168 149 156 280 270 269 274 270 261 276 288 295 279 277
205 229 207 302 334 315 210 319 354 332 36 38 149 157 164 171 165 165 170 171 162 153 146 137 144 147 150 154 147 138 159 170 157 142 137 140 133 142 149 175 285 275 277 276 277 288 289 295 287
315 199 333 348 193 356 340 304 295 27 39 92 39 51 147 161 175 161 154 164 167 157 152 145 149 151 153 157 158 152 163 175 212 151 154 148 144 142 146 293 153 281 284 282 286 287 289 299 299
300 201 217 337 321 312 329 316 332 3 356 330 332 358 18 139 171 174 165 170 165 163 162 155 156 156 156 157 163 163 170 176 261 267 256 182 294 289 308 282 291 253 290 303 276 298 288 284 294
312 290 288 232 268 282 293 298 325 345 7 357 7 46 30 41 159 165 167 167 163 160 165 168 160 156 157 159 158 163 166 172 204 227 250 277 282 292 294 282 251 257 267 309 320 316 300 276 288
295 289 291 299 320 317 312 315 299 357 12 11 19 33 70 73 129 163 165 164 162 162 167 163 162 159 156 158 162 163 163 170 186 188 182 219 292 296 309 148 185 256 250 294 325 141 297 286 286
315 280 277 275 293 300 308 325 324 335 339 335 349 354 41 69 91 155 163 166 164 162 157 167 163 161 163 163 160 165 185 185 193 205 184 184 288 310 148 164 250 293 220 192 183 186 230 283 289
304 296 253 282 292 299 300 294 358 350 345 21 351 1 24 45 44 88 157 162 166 167 170 167 182 169 168 168 163 167 168 240 180 186 185 179 235 233 269 197 182 184 192 194 232 203 204 297 302